www.pogodaiklimat.ru

Погода и климат >> Архив погоды >> Аргентина >> Чамикаль


ПОГОДА в Чамикале

  • Прогноз погоды в Чамикале
  • Монитор погоды в Чамикале

АРХИВ ПОГОДЫ в Чамикале

Время (UTC), дата Ветер
(напр.,м/с)
 
Видим.   Явления Облачность Т
(С)
Тd
(С)
f
(%)
Тe
(С)
Тes
(С)
Комфортность P
(гПа)
Po
(гПа)
Тmin
(С)
Tmax
(С)
R
(мм)
R24
(мм)
S
(см)
09 9.07 Ю 1 20 км ясно +7.8 +2.5 69 +7 +7 1016.9 962.5
12 9.07 штиль 0 20 км 9/0
[Ci]
+6.4 +1.9 73 +6 +6 1017.9 962.8 +4.6 +10.7
15 9.07 В 2 20 км 9/0
[Ci]
+15.2 +1.8 40 +15 +21 1018.5 964.2
18 9.07 В 5 20 км 9/0
[Ci]
+19.7 +2.7 32 +20 +23 1014.7 960.9
21 9.07 штиль 0 20 км 9/0
[Cs]
+17.6 +0.3 31 +18 +18 1015.0 960.9
03 10.07 ЮЗ 1 20 км 5/0
[Cs]
+12.0 +4.3 59 +12 +12 1017.4 963.4
06 10.07 ЮЗ 1 20 км ясно +6.7 +2.8 76 +6 +6 1016.9 962.9
09 10.07 ЮЗ 1 20 км ясно +7.0 +3.8 80 +6 +6 1015.9 961.8
12 10.07 Ю 1 20 км ясно +9.2 +3.7 68 +9 +9 1017.3 962.6 +5.0 +12.9
15 10.07 В 1 20 км ясно +18.4 +5.8 44 +20 +28 1016.5 962.8
18 10.07 штиль 0 15 км мгла 6/0
[Ci fib]
+22.6 +6.8 36 +23 +31 комфорт 1012.6 959.0
21 10.07 штиль 0 20 км 8/0
[Cs]
+21.8 +8.2 42 +23 +23 комфорт 1012.1 958.5
00 11.07 штиль 0 20 км 6/0
[Cs]
+13.2 +7.7 69 +13 +13 1013.1 958.9 +9.2 +23.3
03 11.07 Ю 1 20 км 4/0
[Cs]
+11.2 +6.9 75 +11 +11 1013.3 959.8
06 11.07 штиль 0 20 км 4/0
[Ci]
+9.8 +6.5 80 +9 +9 1012.2 958.9
09 11.07 штиль 0 20 км 4/0
[Ci]
+9.7 +7.5 86 +9 +9 1010.4 957.2
12 11.07 штиль 0 20 км ясно +9.5 +8.1 91 +9 +9 1010.8 956.8 +7.8 +14.5
15 11.07 штиль 0 20 км 3/0
[Ci fib]
+19.8 +9.2 50 +21 +29 комфорт 1011.0 957.7
18 11.07 штиль 0 20 км 3/3 1200 м
[Cu hum]
+22.4 +10.0 45 +24 +30 комфорт 1007.5 954.5
21 11.07 штиль 0 20 км 3/3 1200 м
[Cu hum]
+22.0 +11.6 52 +24 +24 комфорт 1006.7 953.7
00 12.07 штиль 0 20 км ясно +16.0 +10.5 70 +16 +16 1010.5 956.8 +9.2 +24.0
03 12.07 штиль 0 20 км 5/0
[Ac und]
+12.0 +8.5 79 +12 +12 1012.1 958.8
06 12.07 штиль 0 20 км 4/0 1500 м
[Ac und]
+10.8 +7.6 81 +10 +10 1012.7 959.4
09 12.07 штиль 0 20 км 6/6 1200 м
[Sc]
+9.4 +7.4 87 +9 +9 1013.8 960.4
12 12.07 штиль 0 10 км дымка 4/0
[Ac As]
+7.1 +5.1 87 +6 +7 1017.1 962.6 +5.6 +16.0
15 12.07 С 1 15 км мгла 3/1 1200 м
[Cu hum Ac As]
+17.6 +6.2 47 +19 +25 1017.6 963.8
18 12.07 штиль 0 15 км мгла 3/3 1200 м
[Cu hum Ci fib]
+20.6 +6.1 39 +21 +28 комфорт 1014.5 961.0
21 12.07 ЮВ 1 20 км 3/0
[Ac As]
+19.0 +6.7 45 +21 +21 комфорт 1014.7 960.9
00 13.07 Ю 2 20 км 9/9 1350 м
[Sc]
+14.2 +6.4 59 +14 +14 1018.2 963.6 +7.1 +21.4
03 13.07 штиль 0 20 км 10/10 1050 м
[Sc]
+13.6 +7.9 68 +13 +13 1017.6 964.0
06 13.07 штиль 0 20 км 10/10 1050 м
[Sc]
+11.8 +8.3 79 +11 +11 1015.7 962.2
09 13.07 штиль 0 20 км 10/10 1050 м
[Sc]
+11.9 +7.5 74 +11 +11 1014.6 961.0
12 13.07 штиль 0 20 км 9/9 1200 м
[Sc]
+13.8 +6.6 62 +14 +14 1016.1 962.2 +11.7 +14.4
15 13.07 штиль 0 20 км 10/10 1200 м
[Sc]
+14.8 +7.4 61 +15 +15 1016.9 963.0
18 13.07 штиль 0 20 км 10/10 1200 м
[Sc]
+17.0 +6.9 51 +17 +17 1014.5 960.5
21 13.07 штиль 0 50 км ?/? +17.2 +7.1 51 +17 +17 1014.1 960.5
00 14.07 штиль 0 20 км 8/8 1200 м
[St]
+14.8 +6.9 59 +15 +15 1016.7 962.9 +13.7 +17.4
03 14.07 штиль 0 20 км 4/4 1200 м
[Sc]
+8.6 +5.4 80 +8 +8 1019.4 964.9
06 14.07 ЮЗ 1 20 км ясно +7.6 +4.7 82 +7 +7 1018.8 964.5
09 14.07 ЮЗ 1 20 км ясно +6.1 +4.5 89 +5 +5 1017.7 963.4
12 14.07 штиль 0 20 км ясно +6.5 +4.7 88 +6 +6 1018.4 963.8 +4.9 +14.8
18 14.07 штиль 0 20 км ясно +19.6 +7.7 46 +20 +29 1014.7 960.9
21 14.07 СВ 4 20 км 4/0
[Ci]
+19.1 +7.0 45 +20 +20 1014.6 960.5
00 15.07 Ю 2 20 км 5/0
[Cs]
+12.9 +6.2 64 +12 +12 1017.4 962.8 +6.4 +21.3
03 15.07 штиль 0 20 км 9/9 1200 м
[Sc]
+12.0 +7.2 72 +12 +12 1018.2 964.4
06 15.07 штиль 0 20 км 6/6 1200 м
[Sc]
+13.8 +8.8 72 +14 +14 1019.8 966.2
09 15.07 штиль 0 20 км 4/4 1200 м
[Sc]
+10.0 +8.0 87 +9 +9 1020.3 966.4
12 15.07 штиль 0 20 км 9/9 1200 м
[Sc]
+12.0 +9.3 84 +11 +12 1023.5 969.0 +7.7 +13.8
15 15.07 штиль 0 20 км 3/3 1200 м
[Sc]
+17.6 +10.8 64 +18 +24 1024.0 969.8
18 15.07 штиль 0 20 км 6/6 1050 м
[Sc]
+19.5 +9.0 51 +20 +24 1021.1 967.4
21 15.07 штиль 0 20 км 3/3 1050 м
[Sc]
+19.8 +6.8 43 +20 +21 1021.1 967.2
00 16.07 штиль 0 20 км 1/1 1050 м
[Sc]
+10.2 +6.0 75 +10 +10 1023.3 968.5 +9.4 +20.8
03 16.07 штиль 0 20 км 5/0
[Ac trans]
+9.8 +6.0 77 +9 +9 1022.8 968.5
06 16.07 штиль 0 20 км 9/0
[Ac und]
+12.5 +6.6 67 +12 +12 1021.8 968.1

 

Местоположение метеостанции Чамикаль (Аргентина): широта -30.36 долгота -66.28 высота над уровнем моря 461 м.

В архиве по умолчанию представлена погода в Чамикале за последнюю неделю. Архивные данные за месяц целиком и за предыдущие месяцы, начиная с января 2011 года, Вы можете получить, выбрав интересующий диапазон дат из раскрывающегося списка и нажав кнопку "Ввод!".


*Определитесь, кто Вы:
робот инопланетянин человек

Внимание! Время в таблицах - всемирное. Для получения местного времени необходимо прибавить поправку, которая равна -3 ч.

Смотрите также архив погоды в соседних городах и на ближайших метеорологических станциях:

Погода в Ла-Риохе (Аргентина) (120 км)
Погода в Сан-Фернандо-дель-Валье-де-Катамарке (Аргентина) (202 км)
Погода в Вилла Долорес (Аргентина) (208 км)
Погода в Кордове (Аргентина) (224 км)
Погода в Сан-Хуане (Аргентина) (234 км)
Погода в Вилла де Мария дель Рио Секо (Аргентина) (255 км)
Погода в Пиларе (Аргентина) (271 км)
Погода в Сан-Луисе (Аргентина) (323 км)
Погода в Сантьяго-дель-Эстеро (Аргентина) (347 км)
Погода в Рио-Куарто (Аргентина) (358 км)

Пояснения к столбцам:

Ветер - указаны скорость ветра в м/с - средняя за 10 мин, порывы в срок и между сроками (в фигурных скобках) и направление, откуда дует ветер: С - северный, СВ - северо-восточный, В - восточный, ЮВ - юго-восточный, Ю - южный, ЮЗ - юго-западный, З - западный, СЗ - северо-западный.
Видимость - горизонтальная дальность видимости в метрах или километрах. При видимости от 1 до 10 км при отсутствии осадков обычно наблюдается дымка, при ухудшении видимости до 1 км и менее - туман. В сухую погоду видимость может ухудшаться дымом, пылью или мглою.
Явления - указаны атмосферные явления, наблюдавшиеся в срок или в последний час перед сроком; фигурными скобками обозначены явления, наблюдавшиеся между сроками (за 1-3 часа до срока); квадратными скобками обозначены град или гололедные отложения с указанием их диаметра в мм.
Облачность - указаны через наклонную черту общая и нижняя облачность в баллах и высота нижней границы облаков в метрах; квадратными скобками обозначены формы облаков: Ci - перистые, Cs - перисто-слоистые, Cc - перисто-кучевые, Ac - высококучевые, As - высокослоистые, Sc - слоисто-кучевые, Ns - слоисто-дождевые, Cu - кучевые, Cb - кучево-дождевые. Подробнее классификацию облаков см. в Атласе облаков (PDF).
T - Температура воздуха - температура, измеренная на высоте 2 м над землей.
Td - Температура точки росы - температура, при понижении до которой содержащийся в воздухе водяной пар достигнет насыщения.
f - Относительная влажность воздуха - влажноcть воздуха, измеренная на высоте 2 м над землей.
Te - Эффективная температура - температура, которую ощущает одетый по сезону человек в тени. Характеристика душности погоды. При расчете учитывается влияние влажности воздуха и скорости ветра на теплоощущения человека.
Tes - Эффективная температура на солнце - температура, которую ощущает человек, с поправкой на солнечный нагрев. Характеристика знойности погоды. Зависит от высоты солнца над горизонтом, облачности и скорости ветра. Ночью, в пасмурную погоду, а также при ветре 12 м/с и более поправка равна нулю.
P - Атмосферное давление - приведенное к уровню моря атмосферное давление.
Po - Атмосферное давление - измеренное на уровне метеостанции атмосферное давление.
Tmin - Минимальная температура - минимум температуры воздуха на высоте 2 м над землей.
Tmax - Максимальная температура - максимум температуры воздуха на высоте 2 м над землей.
R - Количество осадков - Количество выпавших осадков за период времени, мм. При наведении курсора мыши на число - период времени, за который выпало указанное количество осадков.
R24 - Количество осадков - Количество выпавших осадков за 24 часа, мм.
S - Снежный покров - Высота снежного покрова, см. При наведении курсора мыши на число - состояние снежного покрова и степень покрытия местности в баллах.